Regional Weather Roundup
Issued by NWS Little Rock, AR

Home | Current Version | Previous Version | Text Only | Print | Product List | Glossary On
Versions: 1 2 3 4 5 6 7 8 9 10 11 12 13 14 15 16 17 18 19 20 21 22 23 24 25 26 27 28 29 30 31 32 33 34
000
ASUS44 KLZK 230905
RWRLZK

WEATHER ROUNDUP FOR ARKANSAS
NATIONAL WEATHER SERVICE LITTLE ROCK AR
400 AM CDT WED AUG 23 2017

NOTE: "FAIR" INDICATES FEW OR NO CLOUDS BELOW 12,000 FEET WITH NO
SIGNIFICANT WEATHER AND/OR OBSTRUCTIONS TO VISIBILITY.

ARZ001-003-010-029-231000-
NORTHWEST ARKANSAS

CITY           SKY/WX    TMP DP  RH WIND       PRES   REMARKS
FAYETTEVILLE   CLOUDY    73  71  93 VRB3      30.08F
FORT SMITH     HVY RAIN  73  73 100 CALM      30.03F FOG
HARRISON       CLOUDY    72  65  78 NE5       30.10S
BENTONVILLE    CLOUDY    72  64  78 NE8       30.10S
ROGERS         CLOUDY    71  66  84 NE7       30.11S
HIGHFILL       CLOUDY    72  66  81 NE10      30.10S
$$

ARZ004-005-016-231000-
NORTH CENTRAL ARKANSAS

CITY           SKY/WX    TMP DP  RH WIND       PRES   REMARKS
FLIPPIN        CLOUDY    73  61  64 N5        30.05S
MTN HOME       CLOUDY    72  65  78 NE3       30.07S
$$

ARZ040-041-231000-
WEST CENTRAL ARKANSAS

CITY           SKY/WX    TMP DP  RH WIND       PRES   REMARKS
MENA           CLOUDY    73  72  94 CALM      30.06S
MOUNT IDA      LGT RAIN  71  69  93 CALM      30.03F
$$

ARZ009-017-025-026-028-231000-
NORTHEAST ARKANSAS

CITY           SKY/WX    TMP DP  RH WIND       PRES   REMARKS
CORNING        FAIR      70  70 100 N5        30.04R
JONESBORO      CLOUDY    74  71  91 N7        30.01S
NEWPORT        CLOUDY    72  71  97 N8        30.01F
WALNUT RIDGE   PTCLDY    72  66  83 N8        30.03S
BLYTHEVILLE    CLOUDY    71  70  96 N3        30.00S
$$

ARZ022-023-033-042-044-231000-
CENTRAL ARKANSAS

CITY           SKY/WX    TMP DP  RH WIND       PRES   REMARKS
LITTLE ROCK    CLOUDY    77  72  84 NW12      30.02R
N LITTLE ROCK    N/A     75  70  84 NW6       30.04R
JACKSONVILLE   CLOUDY    75  73  92 W10       30.02R
CONWAY           N/A     73  72  94 W12       30.03S
SEARCY         CLOUDY    75  72  90 NW5       30.03S
HOT SPRINGS    CLOUDY    77  71  82 VRB3      30.03F
RUSSELLVILLE   LGT RAIN  72  72 100 CALM      30.05F
CLINTON        CLOUDY    73  73 100 W3        30.05R
$$

ARZ036-231000-
EAST ARKANSAS

CITY           SKY/WX    TMP DP  RH WIND       PRES   REMARKS
WEST MEMPHIS   PTCLDY    73  73 100 CALM      29.98S
$$

ARZ050-053-066-070-073-231000-
SOUTHWEST ARKANSAS

CITY           SKY/WX    TMP DP  RH WIND       PRES   REMARKS
ARKADELPHIA    FAIR      76  74  93 CALM      30.02S
CAMDEN         MOCLDY    75  73  94 CALM      29.97F FOG
TEXARKANA      PTCLDY    77  77 100 N7        30.00S
EL DORADO      CLOUDY    75  74  96 S3        29.98F
DE QUEEN       MOCLDY    75  74  96 NE3       30.00R
$$

ARZ056-057-069-231000-
SOUTHEAST ARKANSAS

CITY           SKY/WX    TMP DP  RH WIND       PRES   REMARKS
PINE BLUFF     MOCLDY    73  72  96 N5        29.98S
MONTICELLO     PTCLDY    76  74  93 CALM      29.98S

$$






USA.gov is the U.S. government's official web portal to all federal, state and local government web resources and services.